548  
ASUS42 KMHX 011610  
RWRMHX  
WEATHER ROUNDUP FOR EASTERN NORTH CAROLINA  
NATIONAL WEATHER SERVICE NEWPORT/MOREHEAD CITY NC  
1200 PM EDT WED OCT 01 2014  
 
NOTE: "FAIR" INDICATES FEW OR NO CLOUDS BELOW 12,000 FEET  
WITH NO SIGNIFICANT WEATHER AND/OR S TO VISIBILITY
 
 
NCZ015>017-031-032-045>047-102-103-011700-  
NORTH COAST  
 
CITY SKY/WX TMP DP RH WIND PRES REMARKS
 
EDENTON SUNNY 75 62 64 N7 30.00S  
ELIZABETH CITY SUNNY 76 62 62 N9 29.99S  
KITTY HAWK MOSUNNY 74 64 71 N6 29.98R  
MANTEO SUNNY 74 64 70 N13G18 29.99S  
 

 
 
NCZ045>047-081-094-103-104-011700-  
CENTRAL COAST  
 
CITY SKY/WX TMP DP RH WIND PRES REMARKS
 
FRISCO SUNNY 73 66 78 N10G16 29.98R  
SWANQUARTER N/A 77 N/A N/A N7G14 29.94S  
 

 
 
NCZ095-097-098-100-101-011700-  
SOUTHERN COAST  
 
CITY SKY/WX TMP DP RH WIND PRES REMARKS
 
BEAUFORT SUNNY 78 63 59 N12 29.98S  
CEDAR ISLAND N/A 75 N/A N/A N9 30.03S  
JACKSONVILLE SUNNY 76 63 64 NE8 30.00S  
NEWPORT NOT AVBL  
PINEY ISLAND SUNNY 76 64 66 N10 29.99R HAZE  
WILMINGTON SUNNY 77 62 59 E7 30.00S  
 

 
 
NCZ011>013-027>030-043-044-078>080-089-090>093-098-011700-  
COASTAL PLAIN  
 
CITY SKY/WX TMP DP RH WIND PRES REMARKS
 
AHOSKIE MOSUNNY 70 63 78 N7 30.02S  
CLINTON SUNNY 76 65 69 E3 30.02F  
ELIZABETHTOWN SUNNY 76 64 67 CALM 30.02S  
GOLDSBORO SUNNY 75 68 77 CALM 30.00S  
GREENVILLE SUNNY 73 63 68 N7 30.03S  
HAVELOCK MOSUNNY 77 64 64 NE9 30.00S  
KENANSVILLE SUNNY 75 62 65 N3 30.02S  
KINSTON MOSUNNY 77 63 61 N5 30.02S  
NEW BERN SUNNY 78 63 59 NW6 30.01S  
RICHLANDS SUNNY 75 63 64 N7 30.01S  
ROANOKE RAPIDS NOT AVBL  
ROCKY MOUNT MOSUNNY 74 63 68 NE6 30.02F  
WASHINGTON MOSUNNY 74 64 69 N7 30.01S  
WHITEVILLE SUNNY 76 63 64 N3 30.01S  
 

 
 
AMZ130-135-150-152-154-156-158-170-250-252-270-ANZ085-086-088-633-658-670-011700-  
MARINE OBSERVATIONS  
 
STATION/POSITION TIME TEMP WIND PRES WAVE SWELL
 
AIR SEA DIR/SP/G HT/PER HT/PER  
(UTC) (F) (DEG/KT/KT) (MB) (FT/S) (FT/S)  
CHESAPEAKE LIGHT 1500 69 10/ 14/ 15 1016.3  
BUOY 44014 1600 70 71 10/ 14/ 17 1014.3 3/ 5 2/ 8  
DUCK 1600 71 72 360/ 15/ 16 1014.7  
2E DUCK 1600 N/A 3/ 5 2/13  
OREGON INLET 1600 73 73 360/ 12/ 17 1015.0  
BUOY 44095 1600 73 N/A 5/ 6 2/13  
20E OREGON INLET NOT AVBL  
HATTERAS CG 1600 71 73 10/ 17/ 18 1015.4  
DIAMOND BUOY 1600 72 360/ 16/ 19 1014.4 4/ 7 2/ 7  
CAPE LOOKOUT 1500 73 40/ 11/ 13 1015.2  
BEAUFORT LAB 1600 75 74 10/ 10/ 15 1014.8  
30 SE NEW RIVER 1600 72 79 30/ 12/ 14 1014.9 3/ 5 2/ 6  
5 SE WRIGHTSVILL 1500 67 75 30/ 10/ 12 N/A  
BUOY 41002 1549 78 81 340/ 14/ 17 1012.6 3/ 5 2/ 7  
BUOY 41004 1600 77 81 30/ 10/ 12 1015.2 3/ 6 2/ 6  
 

 
 
CLICK HERE TO GO TO PREVIOUS BULLETINS.

The Nexlab NC Page Main Text Page